Time,TemperatureF,DewpointF,PressureIn,WindDirection,WindDirectionDegrees,WindSpeedMPH,WindSpeedGustMPH,Humidity,HourlyPrecipIn,Conditions,Clouds,dailyrainin,SolarRadiationWatts/m^2,SoftwareType,DateUTC
2013-01-14 00:10:00,9.5,7.0,30.25,NW,307,10.0,12.0,89,0.00,,,0.00,0,weatherlink.com 1.10,2013-01-14 06:10:00,
2013-01-14 00:25:00,9.4,5.0,30.25,WNW,292,9.0,12.0,81,0.00,,,0.00,0,weatherlink.com 1.10,2013-01-14 06:25:00,
2013-01-14 00:41:00,9.3,5.0,30.26,WNW,302,11.0,13.0,81,0.00,,,0.00,0,weatherlink.com 1.10,2013-01-14 06:41:00,
2013-01-14 00:56:00,9.3,5.0,30.27,WNW,299,12.0,15.0,81,0.00,,,0.00,0,weatherlink.com 1.10,2013-01-14 06:56:00,
2013-01-14 01:11:00,9.2,5.0,30.28,WNW,299,8.0,11.0,81,0.00,,,0.00,0,weatherlink.com 1.10,2013-01-14 07:11:00,
2013-01-14 01:26:00,9.0,5.0,30.28,WNW,293,6.0,11.0,82,0.00,,,0.00,0,weatherlink.com 1.10,2013-01-14 07:26:00,
2013-01-14 01:41:00,9.0,5.0,30.29,WNW,296,6.0,9.0,82,0.00,,,0.00,0,weatherlink.com 1.10,2013-01-14 07:41:00,
2013-01-14 01:56:00,8.9,5.0,30.29,WNW,298,7.0,10.0,82,0.00,,,0.00,0,weatherlink.com 1.10,2013-01-14 07:56:00,
2013-01-14 02:11:00,8.7,5.0,30.30,WNW,300,9.0,10.0,83,0.00,,,0.00,0,weatherlink.com 1.10,2013-01-14 08:11:00,
2013-01-14 02:26:00,8.7,5.0,30.30,NW,308,6.0,10.0,83,0.00,,,0.00,0,weatherlink.com 1.10,2013-01-14 08:26:00,
2013-01-14 02:41:00,8.5,4.0,30.31,WNW,300,8.0,10.0,83,0.00,,,0.00,0,weatherlink.com 1.10,2013-01-14 08:41:00,
2013-01-14 02:56:00,8.5,4.0,30.32,WNW,300,6.0,13.0,83,0.00,,,0.00,0,weatherlink.com 1.10,2013-01-14 08:56:00,
2013-01-14 03:11:00,8.0,4.0,30.33,WNW,300,4.0,5.0,83,0.00,,,0.00,0,weatherlink.com 1.10,2013-01-14 09:11:00,
2013-01-14 03:26:00,7.9,4.0,30.33,NW,313,6.0,6.0,84,0.00,,,0.00,0,weatherlink.com 1.10,2013-01-14 09:26:00,
2013-01-14 03:41:00,7.7,4.0,30.34,NW,310,5.0,8.0,84,0.00,,,0.00,0,weatherlink.com 1.10,2013-01-14 09:41:00,
2013-01-14 03:56:00,7.3,4.0,30.34,WNW,294,7.0,8.0,84,0.00,,,0.00,0,weatherlink.com 1.10,2013-01-14 09:56:00,
2013-01-14 04:12:00,7.5,4.0,30.35,WNW,286,5.0,9.0,84,0.00,,,0.00,0,weatherlink.com 1.10,2013-01-14 10:12:00,
2013-01-14 04:27:00,7.8,4.0,30.36,WNW,283,2.0,6.0,84,0.00,,,0.00,0,weatherlink.com 1.10,2013-01-14 10:27:00,
2013-01-14 04:42:00,7.7,4.0,30.37,WNW,282,2.0,3.0,84,0.00,,,0.00,0,weatherlink.com 1.10,2013-01-14 10:42:00,
2013-01-14 04:57:00,7.3,4.0,30.38,WNW,282,1.0,4.0,84,0.00,,,0.00,0,weatherlink.com 1.10,2013-01-14 10:57:00,
2013-01-14 05:12:00,6.9,3.0,30.39,WSW,237,3.0,5.0,84,0.00,,,0.00,0,weatherlink.com 1.10,2013-01-14 11:12:00,
2013-01-14 05:27:00,6.5,3.0,30.40,SW,236,3.0,4.0,85,0.00,,,0.00,0,weatherlink.com 1.10,2013-01-14 11:27:00,
2013-01-14 05:42:00,6.5,3.0,30.39,SW,236,1.0,3.0,86,0.00,,,0.00,0,weatherlink.com 1.10,2013-01-14 11:42:00,
2013-01-14 05:57:00,6.8,4.0,30.40,WSW,239,0.0,5.0,86,0.00,,,0.00,0,weatherlink.com 1.10,2013-01-14 11:57:00,
2013-01-14 06:12:00,7.0,4.0,30.40,West,275,4.0,6.0,86,0.00,,,0.00,0,weatherlink.com 1.10,2013-01-14 12:12:00,
2013-01-14 06:27:00,6.9,3.0,30.41,West,275,0.0,4.0,85,0.00,,,0.00,0,weatherlink.com 1.10,2013-01-14 12:27:00,
2013-01-14 06:42:00,6.7,3.0,30.43,West,271,2.0,5.0,85,0.00,,,0.00,0,weatherlink.com 1.10,2013-01-14 12:42:00,
2013-01-14 06:57:00,6.9,3.0,30.43,West,271,4.0,4.0,85,0.00,,,0.00,0,weatherlink.com 1.10,2013-01-14 12:57:00,
2013-01-14 07:12:00,6.3,3.0,30.44,SW,225,3.0,6.0,84,0.00,,,0.00,0,weatherlink.com 1.10,2013-01-14 13:12:00,
2013-01-14 07:27:00,5.7,2.0,30.45,SW,225,3.0,3.0,85,0.00,,,0.00,7,weatherlink.com 1.10,2013-01-14 13:27:00,
2013-01-14 07:43:00,6.1,3.0,30.45,SW,225,4.0,5.0,86,0.00,,,0.00,25,weatherlink.com 1.10,2013-01-14 13:43:00,
2013-01-14 07:58:00,6.8,4.0,30.45,SW,225,1.0,3.0,87,0.00,,,0.00,54,weatherlink.com 1.10,2013-01-14 13:58:00,
2013-01-14 08:13:00,7.7,4.0,30.45,SW,225,2.0,3.0,86,0.00,,,0.00,95,weatherlink.com 1.10,2013-01-14 14:13:00,
2013-01-14 08:28:00,8.6,5.0,30.45,SW,225,3.0,4.0,85,0.00,,,0.00,135,weatherlink.com 1.10,2013-01-14 14:28:00,
2013-01-14 08:43:00,9.4,6.0,30.45,SW,227,2.0,5.0,84,0.00,,,0.00,172,weatherlink.com 1.10,2013-01-14 14:43:00,
2013-01-14 08:58:00,10.0,6.0,30.44,SW,228,2.0,5.0,83,0.00,,,0.00,206,weatherlink.com 1.10,2013-01-14 14:58:00,
2013-01-14 09:13:00,10.8,6.0,30.44,WNW,294,6.0,7.0,82,0.00,,,0.00,241,weatherlink.com 1.10,2013-01-14 15:13:00,
2013-01-14 09:28:00,11.6,7.0,30.44,WNW,293,4.0,7.0,82,0.00,,,0.00,274,weatherlink.com 1.10,2013-01-14 15:28:00,
2013-01-14 09:43:00,12.0,7.0,30.44,WNW,293,6.0,7.0,80,0.00,,,0.00,302,weatherlink.com 1.10,2013-01-14 15:43:00,
2013-01-14 09:58:00,12.7,8.0,30.43,WNW,301,3.0,5.0,81,0.00,,,0.00,332,weatherlink.com 1.10,2013-01-14 15:58:00,
2013-01-14 10:13:00,13.5,8.0,30.43,NW,313,5.0,8.0,79,0.00,,,0.00,359,weatherlink.com 1.10,2013-01-14 16:13:00,
2013-01-14 10:28:00,14.3,9.0,30.43,NW,317,4.0,8.0,78,0.00,,,0.00,385,weatherlink.com 1.10,2013-01-14 16:28:00,
2013-01-14 10:43:00,15.5,10.0,30.44,NW,311,4.0,8.0,77,0.00,,,0.00,408,weatherlink.com 1.10,2013-01-14 16:43:00,
2013-01-14 10:59:00,16.8,9.0,30.45,WNW,302,5.0,8.0,72,0.00,,,0.00,427,weatherlink.com 1.10,2013-01-14 16:59:00,
2013-01-14 11:14:00,17.9,9.0,30.45,West,277,3.0,9.0,68,0.00,,,0.00,443,weatherlink.com 1.10,2013-01-14 17:14:00,
2013-01-14 11:29:00,18.7,9.0,30.44,West,259,6.0,9.0,66,0.00,,,0.00,454,weatherlink.com 1.10,2013-01-14 17:29:00,
2013-01-14 11:44:00,19.5,9.0,30.44,West,275,3.0,9.0,63,0.00,,,0.00,466,weatherlink.com 1.10,2013-01-14 17:44:00,
2013-01-14 11:59:00,19.8,10.0,30.43,West,274,4.0,8.0,67,0.00,,,0.00,469,weatherlink.com 1.10,2013-01-14 17:59:00,
2013-01-14 12:14:00,20.5,10.0,30.42,WNW,290,5.0,8.0,63,0.00,,,0.00,478,weatherlink.com 1.10,2013-01-14 18:14:00,
2013-01-14 12:29:00,20.7,10.0,30.42,West,264,6.0,11.0,63,0.00,,,0.00,471,weatherlink.com 1.10,2013-01-14 18:29:00,
2013-01-14 12:44:00,21.6,12.0,30.41,NW,322,9.0,11.0,66,0.00,,,0.00,461,weatherlink.com 1.10,2013-01-14 18:44:00,
2013-01-14 12:59:00,21.9,10.0,30.41,NW,305,7.0,11.0,61,0.00,,,0.00,466,weatherlink.com 1.10,2013-01-14 18:59:00,
2013-01-14 13:14:00,22.4,11.0,30.41,WNW,300,8.0,12.0,62,0.00,,,0.00,464,weatherlink.com 1.10,2013-01-14 19:14:00,
2013-01-14 13:29:00,22.7,11.0,30.41,WNW,290,6.0,10.0,61,0.00,,,0.00,432,weatherlink.com 1.10,2013-01-14 19:29:00,
2013-01-14 13:44:00,23.0,11.0,30.41,WNW,301,10.0,12.0,61,0.00,,,0.00,418,weatherlink.com 1.10,2013-01-14 19:44:00,
2013-01-14 13:59:00,23.3,11.0,30.41,NW,311,8.0,11.0,60,0.00,,,0.00,316,weatherlink.com 1.10,2013-01-14 19:59:00,
2013-01-14 14:14:00,23.3,10.0,30.41,WNW,290,1.0,7.0,58,0.00,,,0.00,302,weatherlink.com 1.10,2013-01-14 20:14:00,
2013-01-14 14:30:00,23.9,10.0,30.41,West,260,4.0,7.0,56,0.00,,,0.00,304,weatherlink.com 1.10,2013-01-14 20:30:00,
2013-01-14 14:45:00,24.4,11.0,30.41,WSW,240,6.0,7.0,57,0.00,,,0.00,308,weatherlink.com 1.10,2013-01-14 20:45:00,
2013-01-14 15:00:00,24.9,10.0,30.42,West,267,4.0,7.0,54,0.00,,,0.00,271,weatherlink.com 1.10,2013-01-14 21:00:00,
2013-01-14 15:15:00,24.9,12.0,30.41,WSW,242,5.0,7.0,58,0.00,,,0.00,236,weatherlink.com 1.10,2013-01-14 21:15:00,
2013-01-14 15:30:00,25.2,11.0,30.41,WSW,242,4.0,5.0,55,0.00,,,0.00,188,weatherlink.com 1.10,2013-01-14 21:30:00,
2013-01-14 15:45:00,24.9,12.0,30.41,SSW,212,4.0,7.0,59,0.00,,,0.00,156,weatherlink.com 1.10,2013-01-14 21:45:00,
2013-01-14 16:00:00,24.5,12.0,30.40,SSW,211,6.0,7.0,60,0.00,,,0.00,116,weatherlink.com 1.10,2013-01-14 22:00:00,
2013-01-14 16:15:00,24.4,13.0,30.41,SSW,211,3.0,5.0,61,0.00,,,0.00,72,weatherlink.com 1.10,2013-01-14 22:15:00,
2013-01-14 16:30:00,23.8,12.0,30.41,SW,223,4.0,7.0,62,0.00,,,0.00,35,weatherlink.com 1.10,2013-01-14 22:30:00,
2013-01-14 16:45:00,22.8,13.0,30.41,SW,217,6.0,7.0,67,0.00,,,0.00,9,weatherlink.com 1.10,2013-01-14 22:45:00,
2013-01-14 17:00:00,21.2,13.0,30.41,SSW,206,5.0,7.0,70,0.00,,,0.00,0,weatherlink.com 1.10,2013-01-14 23:00:00,
2013-01-14 17:15:00,19.7,12.0,30.41,SSW,206,6.0,6.0,73,0.00,,,0.00,0,weatherlink.com 1.10,2013-01-14 23:15:00,
2013-01-14 17:30:00,19.1,12.0,30.41,SSW,206,4.0,7.0,74,0.00,,,0.00,0,weatherlink.com 1.10,2013-01-14 23:30:00,
2013-01-14 17:45:00,17.9,11.0,30.41,SSW,206,4.0,5.0,75,0.00,,,0.00,0,weatherlink.com 1.10,2013-01-14 23:45:00,
2013-01-14 18:01:00,17.0,11.0,30.41,South,190,7.0,7.0,76,0.00,,,0.00,0,weatherlink.com 1.10,2013-01-15 00:01:00,
2013-01-14 18:16:00,16.9,11.0,30.41,South,190,8.0,8.0,77,0.00,,,0.00,0,weatherlink.com 1.10,2013-01-15 00:16:00,
2013-01-14 18:31:00,16.6,11.0,30.41,South,191,8.0,9.0,77,0.00,,,0.00,0,weatherlink.com 1.10,2013-01-15 00:31:00,
2013-01-14 18:46:00,16.7,11.0,30.41,SSW,199,7.0,9.0,77,0.00,,,0.00,0,weatherlink.com 1.10,2013-01-15 00:46:00,
2013-01-14 19:01:00,16.2,11.0,30.41,SSW,199,7.0,8.0,78,0.00,,,0.00,0,weatherlink.com 1.10,2013-01-15 01:01:00,
2013-01-14 19:16:00,16.2,11.0,30.42,SSW,200,7.0,8.0,78,0.00,,,0.00,0,weatherlink.com 1.10,2013-01-15 01:16:00,
2013-01-14 19:31:00,16.0,10.0,30.41,SSW,207,7.0,7.0,77,0.00,,,0.00,0,weatherlink.com 1.10,2013-01-15 01:31:00,
2013-01-14 19:46:00,15.8,10.0,30.41,SSW,203,7.0,9.0,78,0.00,,,0.00,0,weatherlink.com 1.10,2013-01-15 01:46:00,
2013-01-14 20:01:00,15.7,10.0,30.41,SSW,205,7.0,9.0,78,0.00,,,0.00,0,weatherlink.com 1.10,2013-01-15 02:01:00,
2013-01-14 20:16:00,15.4,10.0,30.41,SSW,200,7.0,9.0,79,0.00,,,0.00,0,weatherlink.com 1.10,2013-01-15 02:16:00,
2013-01-14 20:31:00,15.2,10.0,30.41,SSW,198,7.0,9.0,79,0.00,,,0.00,0,weatherlink.com 1.10,2013-01-15 02:31:00,
2013-01-14 20:46:00,14.4,9.0,30.41,SSW,196,7.0,8.0,80,0.00,,,0.00,0,weatherlink.com 1.10,2013-01-15 02:46:00,
2013-01-14 21:01:00,14.2,9.0,30.41,SSW,197,6.0,7.0,81,0.00,,,0.00,0,weatherlink.com 1.10,2013-01-15 03:01:00,
2013-01-14 21:17:00,13.8,9.0,30.41,SSW,197,4.0,5.0,82,0.00,,,0.00,0,weatherlink.com 1.10,2013-01-15 03:17:00,
2013-01-14 21:32:00,14.4,10.0,30.40,SSW,209,5.0,6.0,81,0.00,,,0.00,0,weatherlink.com 1.10,2013-01-15 03:32:00,
2013-01-14 21:47:00,14.1,9.0,30.40,SSW,213,6.0,7.0,79,0.00,,,0.00,0,weatherlink.com 1.10,2013-01-15 03:47:00,
2013-01-14 22:02:00,13.7,9.0,30.40,SSW,210,4.0,7.0,82,0.00,,,0.00,0,weatherlink.com 1.10,2013-01-15 04:02:00,
2013-01-14 22:17:00,12.1,8.0,30.40,SSW,210,3.0,4.0,83,0.00,,,0.00,0,weatherlink.com 1.10,2013-01-15 04:17:00,
2013-01-14 22:32:00,12.1,9.0,30.41,SSW,212,5.0,7.0,85,0.00,,,0.00,0,weatherlink.com 1.10,2013-01-15 04:32:00,
2013-01-14 22:47:00,15.5,11.0,30.41,SW,229,6.0,9.0,81,0.00,,,0.00,0,weatherlink.com 1.10,2013-01-15 04:47:00,
2013-01-14 23:02:00,15.7,10.0,30.41,SW,234,7.0,10.0,79,0.00,,,0.00,0,weatherlink.com 1.10,2013-01-15 05:02:00,
2013-01-14 23:17:00,16.0,11.0,30.41,SW,234,8.0,9.0,79,0.00,,,0.00,0,weatherlink.com 1.10,2013-01-15 05:17:00,
2013-01-14 23:32:00,16.2,11.0,30.41,SW,232,7.0,9.0,78,0.00,,,0.00,0,weatherlink.com 1.10,2013-01-15 05:32:00,
2013-01-14 23:47:00,15.7,10.0,30.41,SW,232,7.0,9.0,79,0.00,,,0.00,0,weatherlink.com 1.10,2013-01-15 05:47:00,